, AK

(GMT )
Cape Lisburne

Weather History for PALU - June, 2013

Change the Weather History Date:

Monday, June 24, 2013

  Actual Average Record
Temperature  
Mean Temperature 34 °F -  
Max Temperature 37 °F 47 °F 59 °F (2015)
Min Temperature 32 °F 35 °F 30 °F (2012)
Degree Days  
Heating Degree Days 30    
Moisture  
Dew Point 35 °F    
Average Humidity 100    
Maximum Humidity 100    
Minimum Humidity 99    
Precipitation  
Precipitation 0.00 in - - ()
Sea Level Pressure  
Sea Level Pressure 29.97 in    
Wind  
Wind Speed 11 mph (ESE)    
Max Wind Speed 14 mph    
Max Gust Speed -    
Visibility 6 miles    
Events Rain    
Averages and records for this station are not official NWS values.
T = Trace of Precipitation, MM = Missing Value Source: NWS Daily Summary

Daily Weather History Graph

Daily Weather History Graph

Search for Another Location

Airport or City:

Trip Planner

Search our weather history database for the weather conditions in past years. The results will help you decide how hot, cold, wet, or windy it might be!

Date:

Astronomy

Dec. 31, 1969 Rise Set
Actual Time Sun does not set Sun does not set
Civil Twilight Sun does not set Sun does not set
Nautical Twilight Sun does not set Sun does not set
Astronomical Twilight Sun does not set Sun does not set
Moon 1:55 AM AKDT (6/24) 6:31 AM AKDT (6/24)
Length of Visible Light 24h 00m
Length of Day
24h 00m
Full, 97% of the Moon is Illuminated
Jun 24
Full
Jun 29
Last Quarter
Jul 7
New
Jul 15
First Quarter
Jul 22
Full

Hourly Weather History & Observations

Time (AKDT) Temp. Windchill Dew Point Humidity Pressure Visibility Wind Dir Wind Speed Gust Speed Precip Events Conditions
12:17 AM - - - N/A% 29.94 in 10.0 mi East 11.5 mph - N/A   Overcast
12:37 AM - - - N/A% 29.94 in 10.0 mi East 12.7 mph - N/A   Overcast
12:55 AM - - - N/A% 29.94 in 9.0 mi East 11.5 mph - N/A   Overcast
1:55 AM 32.4 °F 23.5 °F 32.7 °F 100% 29.94 in 10.0 mi SE 11.5 mph - N/A   Overcast
2:17 AM 32.0 °F 23.6 °F 32.0 °F 100% 29.95 in 10.0 mi SE 10.4 mph - N/A   Mostly Cloudy
2:37 AM 33.8 °F 25.3 °F 33.8 °F 100% 29.95 in 8.0 mi SSE 11.5 mph - N/A   Overcast
2:55 AM 33.6 °F 26.2 °F 33.6 °F 100% 29.95 in 5.0 mi SE 9.2 mph - N/A   Overcast
3:18 AM 33.8 °F 25.8 °F 33.8 °F 100% 29.95 in 5.0 mi ESE 10.4 mph - N/A Rain Light Rain
3:38 AM 33.8 °F 25.8 °F 33.8 °F 100% 29.95 in 6.0 mi ESE 10.4 mph - N/A Rain Light Rain Showers
3:55 AM 34.3 °F 26.5 °F 34.3 °F 100% 29.95 in 5.0 mi ESE 10.4 mph - N/A Rain Light Rain Showers
4:18 AM 33.8 °F 25.8 °F 33.8 °F 100% 29.96 in 5.0 mi ESE 10.4 mph - N/A Rain Light Rain Showers
4:55 AM 34.3 °F 27.0 °F 34.5 °F 100% 29.96 in 6.0 mi ESE 9.2 mph - N/A Rain Light Rain Showers
5:18 AM 33.8 °F 26.4 °F 33.8 °F 100% 29.96 in 3.0 mi ESE 9.2 mph - N/A Rain Light Rain Showers
5:38 AM 33.8 °F 25.8 °F 33.8 °F 100% 29.96 in 4.0 mi ESE 10.4 mph - N/A Rain Light Rain Showers
5:55 AM 34.0 °F 26.0 °F 34.3 °F 100% 29.96 in 3.0 mi ESE 10.4 mph - N/A Rain Light Rain Showers
5:58 AM 33.8 °F 25.3 °F 33.8 °F 100% 29.96 in 4.0 mi ESE 11.5 mph - N/A Rain Light Rain Showers
6:18 AM 33.8 °F 25.8 °F 33.8 °F 100% 29.96 in 4.0 mi ESE 10.4 mph - N/A Rain Light Rain Showers
6:38 AM 33.8 °F 25.3 °F 33.8 °F 100% 29.96 in 3.0 mi ESE 11.5 mph - N/A Rain Light Rain Showers
6:55 AM 34.2 °F 25.7 °F 34.5 °F 100% 29.96 in 5.0 mi ESE 11.5 mph - N/A Rain Light Rain Showers
7:38 AM 33.8 °F 24.8 °F 33.8 °F 100% 29.97 in 2.5 mi ESE 12.7 mph - N/A Rain Light Rain Showers
7:55 AM 34.0 °F 25.5 °F 34.5 °F 100% 29.97 in 2.5 mi ESE 11.5 mph - N/A Rain Light Rain Showers
8:18 AM - - - N/A% 29.97 in 2.5 mi ESE 12.7 mph - N/A Rain Light Rain Showers
8:38 AM - - - N/A% 29.97 in 4.0 mi ESE 10.4 mph - N/A Rain Light Rain Showers
8:55 AM - - - N/A% 29.97 in 3.0 mi ESE 12.7 mph - N/A Rain Light Rain Showers
8:58 AM - - - N/A% 29.97 in 2.5 mi East 11.5 mph - N/A Rain Light Rain Showers
9:38 AM 35.6 °F 27.1 °F 35.6 °F 100% 29.97 in 2.0 mi East 12.7 mph - N/A Rain Light Rain Showers
9:55 AM 34.9 °F 25.7 °F 35.4 °F 100% 29.97 in 3.0 mi ESE 13.8 mph - N/A Rain Light Rain Showers
10:18 AM - - - N/A% 29.98 in 1.8 mi East 12.7 mph - N/A   Overcast
10:38 AM 35.6 °F 27.1 °F 35.6 °F 100% 29.98 in 3.0 mi East 12.7 mph - N/A Rain Light Rain Showers
10:55 AM 34.9 °F 25.7 °F 35.4 °F 100% 29.98 in 3.0 mi ESE 13.8 mph - N/A Rain Light Rain Showers
11:38 AM 35.6 °F 27.1 °F 35.6 °F 100% 29.99 in 3.0 mi East 12.7 mph - N/A Rain Light Rain Showers
11:55 AM 35.2 °F 27.1 °F 35.6 °F 100% 29.99 in 2.5 mi ESE 11.5 mph - N/A Rain Light Rain Showers
12:38 PM 35.6 °F 27.1 °F 35.6 °F 100% 29.98 in 3.0 mi ESE 12.7 mph - N/A Rain Light Rain
12:55 PM 35.1 °F 26.9 °F 36.0 °F 100% 29.99 in 3.0 mi ESE 11.5 mph - N/A Rain Light Rain
1:18 PM 35.6 °F 27.1 °F 35.6 °F 100% 29.98 in 4.0 mi ESE 12.7 mph - N/A Rain Light Rain
1:38 PM 35.6 °F 27.1 °F 35.6 °F 100% 29.98 in 4.0 mi ESE 12.7 mph - N/A Rain Light Rain Showers
1:55 PM - - - N/A% 29.98 in 3.0 mi ESE 11.5 mph - N/A Rain Light Rain Showers
1:58 PM 35.6 °F 27.1 °F 35.6 °F 100% 29.98 in 4.0 mi ESE 12.7 mph - N/A Rain Light Rain Showers
2:18 PM 35.6 °F 27.1 °F 35.6 °F 100% 29.98 in 3.0 mi ESE 12.7 mph - N/A   Overcast
2:38 PM 35.6 °F 27.5 °F 35.6 °F 100% 29.98 in 4.0 mi ESE 11.5 mph - N/A   Overcast
2:55 PM 35.4 °F 27.3 °F 35.8 °F 100% 29.99 in 5.0 mi ESE 11.5 mph - N/A Rain Light Rain Showers
3:18 PM 35.6 °F 28.0 °F 35.6 °F 100% 29.98 in 5.0 mi ESE 10.4 mph - N/A   Overcast
3:38 PM 35.6 °F 27.5 °F 35.6 °F 100% 29.98 in 6.0 mi ESE 11.5 mph - N/A Rain Light Rain Showers
3:55 PM 35.4 °F 27.3 °F 35.6 °F 100% 29.98 in 8.0 mi ESE 11.5 mph - N/A   Overcast
4:18 PM 35.6 °F 28.0 °F 35.6 °F 100% 29.98 in 9.0 mi ESE 10.4 mph - N/A   Overcast
4:55 PM 36.0 °F 28.5 °F 36.0 °F 100% 29.98 in 9.0 mi East 10.4 mph - N/A   Overcast
5:18 PM 35.6 °F 28.6 °F 35.6 °F 100% 29.98 in 8.0 mi East 9.2 mph - N/A   Overcast
5:55 PM 35.8 °F 27.8 °F 35.8 °F 100% 29.98 in 10.0 mi ESE 11.5 mph - N/A   Overcast
6:18 PM 35.6 °F 27.5 °F 35.6 °F 100% 29.97 in 10.0 mi ESE 11.5 mph - N/A   Overcast
6:38 PM 35.6 °F 28.0 °F 35.6 °F 100% 29.98 in 10.0 mi East 10.4 mph - N/A   Overcast
6:55 PM 36.0 °F 27.5 °F 36.0 °F 100% 29.98 in 10.0 mi ESE 12.7 mph - N/A   Overcast
7:18 PM 35.6 °F 28.0 °F 35.6 °F 100% 29.98 in 10.0 mi East 10.4 mph - N/A   Overcast
7:55 PM - - - N/A% 29.97 in 10.0 mi ESE 10.4 mph - N/A   Overcast
8:55 PM 36.3 °F 28.4 °F 36.1 °F 99% 29.96 in 10.0 mi SE 11.5 mph - N/A   Overcast
9:18 PM 35.6 °F 27.5 °F 35.6 °F 100% 29.96 in 10.0 mi SE 11.5 mph - N/A   Overcast
9:55 PM 36.0 °F 29.6 °F 36.3 °F 100% 29.95 in 9.0 mi East 8.1 mph - N/A   Overcast
10:38 PM 35.6 °F 28.6 °F 35.6 °F 100% 29.95 in 10.0 mi East 9.2 mph - N/A   Overcast
10:55 PM 36.9 °F 30.1 °F 36.5 °F 99% 29.95 in 10.0 mi East 9.2 mph - N/A   Overcast
11:18 PM - - - N/A% 29.95 in 10.0 mi East 9.2 mph - N/A   Overcast
11:55 PM 37.0 °F 30.4 °F 36.9 °F 99% 29.94 in 10.0 mi East 9.2 mph - N/A   Overcast
11:58 PM 37.4 °F 30.3 °F 37.4 °F 100% 29.94 in 10.0 mi East 10.4 mph - N/A   Overcast